Weather History for Southern Pines, NC

Change the Weather History Date:

Wednesday, December 5, 2012

  Actual Average Record
Temperature  
Mean Temperature 60 °F -  
Max Temperature 71 °F 54 °F 75 °F (1998)
Min Temperature 48 °F 34 °F 19 °F (2000)
Degree Days  
Heating Degree Days 6    
Growing Degree Days 10 (Base 50)    
Moisture  
Dew Point 51 °F    
Average Humidity 75    
Maximum Humidity 94    
Minimum Humidity 55    
Precipitation  
Precipitation 0.00 in - - ()
Sea Level Pressure  
Sea Level Pressure 30.17 in    
Wind  
Wind Speed 6 mph (WNW)    
Max Wind Speed 10 mph    
Max Gust Speed 18 mph    
Visibility 10 miles    
Events      
Averages and records for this station are not official NWS values.
T = Trace of Precipitation, MM = Missing Value Source: NWS Daily Summary

Daily Weather History Graph

Daily Weather History Graph

Search for Another Location

Airport:

Trip Planner

Search our weather history database for the weather conditions in past years. The results will help you decide how hot, cold, wet, or windy it might be!

Date:

Astronomy

Dec. 05, 2012 Rise Set
Actual Time 7:11 AM EST 5:05 PM EST
Civil Twilight 6:43 AM EST 5:33 PM EST
Nautical Twilight 6:12 AM EST 6:04 PM EST
Astronomical Twilight 5:41 AM EST 6:35 PM EST
Moon 11:41 PM EST (12/5) 11:44 AM EST (12/5)
Length of Visible Light 10h 49m
Length of Day
9h 53m
Waning Gibbous, 60% of the Moon is Illuminated
Dec 5
Waning Gibbous
Dec 6
Last Quarter
Dec 13
New
Dec 20
First Quarter
Dec 28
Full

Hourly Weather History & Observations

Time (EST) Temp. Dew Point Humidity Pressure Visibility Wind Dir Wind Speed Gust Speed Precip Events Conditions
12:15 AM 55.4 °F 48.2 °F 77% 30.20 in 10.0 mi SW 5.8 mph - N/A   Partly Cloudy
12:35 AM 53.6 °F 48.2 °F 82% 30.19 in 10.0 mi SW 5.8 mph - N/A   Partly Cloudy
12:55 AM 53.6 °F 48.2 °F 82% 30.19 in 10.0 mi WSW 4.6 mph - N/A   Partly Cloudy
1:15 AM 53.6 °F 48.2 °F 82% 30.19 in 10.0 mi SW 6.9 mph - N/A   Clear
1:35 AM 55.4 °F 51.8 °F 88% 30.18 in 10.0 mi SW 8.1 mph - N/A   Clear
1:55 AM 55.4 °F 51.8 °F 88% 30.18 in 10.0 mi SW 6.9 mph - N/A   Clear
2:15 AM 55.4 °F 51.8 °F 88% 30.18 in 10.0 mi SW 6.9 mph - N/A   Clear
2:55 AM 55.4 °F 51.8 °F 88% 30.17 in 10.0 mi SW 9.2 mph - N/A   Clear
3:15 AM 55.4 °F 51.8 °F 88% 30.17 in 10.0 mi SW 9.2 mph - N/A   Clear
3:35 AM 53.6 °F 51.8 °F 94% 30.17 in 10.0 mi SW 6.9 mph - N/A   Clear
3:55 AM 53.6 °F 50.0 °F 88% 30.16 in 10.0 mi SW 8.1 mph - N/A   Clear
4:15 AM 53.6 °F 51.8 °F 94% 30.15 in 10.0 mi SW 8.1 mph - N/A   Clear
4:35 AM 55.4 °F 51.8 °F 88% 30.15 in 10.0 mi SW 6.9 mph - N/A   Scattered Clouds
4:55 AM 55.4 °F 51.8 °F 88% 30.14 in 10.0 mi WSW 8.1 mph - N/A   Overcast
5:15 AM 55.4 °F 53.6 °F 94% 30.15 in 10.0 mi WSW 5.8 mph - N/A   Overcast
5:35 AM 57.2 °F 53.6 °F 88% 30.15 in 10.0 mi WSW 8.1 mph - N/A   Overcast
5:55 AM 57.2 °F 53.6 °F 88% 30.15 in 10.0 mi WSW 8.1 mph - N/A   Overcast
6:15 AM 57.2 °F 53.6 °F 88% 30.15 in 10.0 mi WSW 8.1 mph - N/A   Overcast
6:35 AM 57.2 °F 53.6 °F 88% 30.16 in 10.0 mi SW 8.1 mph - N/A   Overcast
6:55 AM 57.2 °F 53.6 °F 88% 30.16 in 10.0 mi WSW 8.1 mph - N/A   Mostly Cloudy
7:15 AM 57.2 °F 53.6 °F 88% 30.16 in 10.0 mi WSW 10.4 mph - N/A   Mostly Cloudy
7:35 AM 57.2 °F 53.6 °F 88% 30.17 in 10.0 mi WSW 10.4 mph - N/A   Mostly Cloudy
7:55 AM 57.2 °F 53.6 °F 88% 30.17 in 10.0 mi WSW 8.1 mph - N/A   Overcast
9:35 AM 62.6 °F 53.6 °F 72% 30.18 in 10.0 mi West 10.4 mph - N/A   Mostly Cloudy
9:55 AM 64.4 °F 53.6 °F 68% 30.18 in 10.0 mi West 6.9 mph 16.1 mph N/A   Partly Cloudy
10:15 AM 64.4 °F 53.6 °F 68% 30.18 in 10.0 mi West 9.2 mph 18.4 mph N/A   Scattered Clouds
10:35 AM 64.4 °F 53.6 °F 68% 30.18 in 10.0 mi WSW 6.9 mph - N/A   Scattered Clouds
10:55 AM 66.2 °F 53.6 °F 64% 30.17 in 10.0 mi West 8.1 mph - N/A   Mostly Cloudy
11:15 AM 69.8 °F 53.6 °F 56% 30.17 in 10.0 mi West 8.1 mph - N/A   Scattered Clouds
11:35 AM 69.8 °F 53.6 °F 56% 30.16 in 10.0 mi West 8.1 mph - N/A   Mostly Cloudy
11:55 AM 69.8 °F 53.6 °F 56% 30.15 in 10.0 mi WNW 6.9 mph - N/A   Overcast
12:15 PM 71.6 °F 55.4 °F 57% 30.15 in 10.0 mi NW 5.8 mph - N/A   Overcast
12:35 PM 69.8 °F 53.6 °F 56% 30.14 in 10.0 mi NW 5.8 mph - N/A   Overcast
12:55 PM 69.8 °F 53.6 °F 56% 30.14 in 10.0 mi NW 4.6 mph - N/A   Overcast
1:15 PM 66.2 °F 53.6 °F 64% 30.13 in 10.0 mi NNW 4.6 mph - N/A   Overcast
1:35 PM 66.2 °F 53.6 °F 64% 30.13 in 10.0 mi NNW 6.9 mph - N/A   Overcast
1:55 PM 66.2 °F 53.6 °F 64% 30.13 in 10.0 mi North 4.6 mph - N/A   Overcast
2:15 PM 64.4 °F 51.8 °F 64% 30.12 in 10.0 mi North 4.6 mph - N/A   Overcast
2:35 PM 64.4 °F 51.8 °F 64% 30.12 in 10.0 mi NE 6.9 mph - N/A   Overcast
2:55 PM 64.4 °F 51.8 °F 64% 30.12 in 10.0 mi NNE 6.9 mph - N/A   Overcast
3:15 PM 64.4 °F 51.8 °F 64% 30.12 in 10.0 mi NNE 4.6 mph - N/A   Overcast
3:35 PM 64.4 °F 51.8 °F 64% 30.12 in 10.0 mi North 6.9 mph - N/A   Overcast
3:55 PM 64.4 °F 51.8 °F 64% 30.13 in 10.0 mi NNE 8.1 mph - N/A   Overcast
4:15 PM 62.6 °F 51.8 °F 68% 30.13 in 10.0 mi NNE 4.6 mph - N/A   Overcast
4:35 PM 62.6 °F 50.0 °F 63% 30.14 in 10.0 mi NNE 5.8 mph - N/A   Overcast
4:55 PM 62.6 °F 50.0 °F 63% 30.15 in 10.0 mi NNE 8.1 mph - N/A   Overcast
5:15 PM 60.8 °F 44.6 °F 55% 30.15 in 10.0 mi North 8.1 mph - N/A   Overcast
5:35 PM 60.8 °F 44.6 °F 55% 30.16 in 10.0 mi NNE 4.6 mph - N/A   Overcast
5:55 PM 60.8 °F 44.6 °F 55% 30.17 in 10.0 mi NNE 3.5 mph - N/A   Overcast
6:15 PM 59.0 °F 44.6 °F 59% 30.17 in 10.0 mi NNE 5.8 mph - N/A   Overcast
6:35 PM 59.0 °F 46.4 °F 63% 30.18 in 10.0 mi NNE 5.8 mph - N/A   Overcast
6:55 PM 59.0 °F 46.4 °F 63% 30.19 in 10.0 mi NNE 4.6 mph - N/A   Overcast
7:15 PM 57.2 °F 46.4 °F 67% 30.19 in 10.0 mi NNE 4.6 mph - N/A   Overcast
7:35 PM 57.2 °F 46.4 °F 67% 30.19 in 10.0 mi NE 3.5 mph - N/A   Overcast
7:55 PM 55.4 °F 48.2 °F 77% 30.19 in 10.0 mi NE 3.5 mph - N/A   Overcast
8:15 PM 55.4 °F 48.2 °F 77% 30.19 in 10.0 mi Calm Calm - N/A   Overcast
8:35 PM 55.4 °F 48.2 °F 77% 30.19 in 10.0 mi Calm Calm - N/A   Overcast
8:55 PM 55.4 °F 48.2 °F 77% 30.19 in 10.0 mi Calm Calm - N/A   Overcast
9:15 PM 53.6 °F 50.0 °F 88% 30.20 in 10.0 mi Calm Calm - N/A   Overcast
9:35 PM 53.6 °F 48.2 °F 82% 30.19 in 10.0 mi Calm Calm - N/A   Overcast
9:55 PM 53.6 °F 48.2 °F 82% 30.19 in 10.0 mi Calm Calm - N/A   Overcast
10:15 PM 51.8 °F 48.2 °F 88% 30.19 in 10.0 mi Calm Calm - N/A   Overcast
10:35 PM 51.8 °F 48.2 °F 88% 30.19 in 10.0 mi Calm Calm - N/A   Overcast
10:55 PM 51.8 °F 46.4 °F 82% 30.20 in 10.0 mi Calm Calm - N/A   Overcast
11:15 PM 51.8 °F 48.2 °F 88% 30.20 in 10.0 mi Calm Calm - N/A   Scattered Clouds
11:35 PM 48.2 °F 46.4 °F 93% 30.20 in 3.0 mi Calm Calm - N/A   Clear
11:55 PM 50.0 °F 46.4 °F 87% 30.20 in 3.0 mi Calm Calm - N/A   Clear